Content
SEND FEEDBACK

Daily
Averages
Monthly
Summary
United States of America

WADSWORTH, NEVADA


Home > North America > United States > Nevada
Elevation: 4253 feet     Latitude: 39 42N     Longitude: 119 17W

WEATHER
 
SELECT A DAY
Number of Records: 198,509;   Date Range: 1/1/95 - 7/23/14
 
SHARE

PRINT THIS DATA

[ ← Previous Day ]
WEATHER ALMANAC - JANUARY 31, 2013
[ Next Day → ]
[ °C ]   °F
Weather ElementAverageHighLow
Temperature40 °F57.9 °F (3:55 pm)27 °F (6:55 am)
Dewpoint27.5 °F32 °F (5:55 pm)23 °F (6:55 am)
Humidity64.2 %85 % (4:55 am)33 % (3:55 pm)
Barometer30.31 in30.39 in (1:55 am)30.19 in (3:55 pm)
Wind Speed1.2 mph6.9 mph (4:55 pm)
Weather ElementAverage
Visibility10 mi
Wind DirectionNNE (8.7 °)

Weather ElementTotal
Precipitation---
Heating Degree Days22.6 (Base 65)
Averaged from 23 records on January 31, 2013
WEATHER CONDITIONS BREAKOUT
WIND DIRECTION BREAKOUT
WEATHER BY HOUR - JANUARY 31, 2013
[ °C ]   °F
Local TimeTemperatureDewpointHumidityBarometerVisibilityWind DirectionWind SpeedGust SpeedPrecipitationEventsConditions
1:55 AM30.9 °F26.1 °F82 %30.39 in10.0 miCalmClear
2:55 AM30.0 °F25.0 °F82 %30.37 in10.0 miCalmClear
3:55 AM28.9 °F24.1 °F82 %30.37 in10.0 miEast (80°)3.5 mphClear
4:55 AM28.0 °F24.1 °F85 %30.37 in10.0 miCalmClear
5:55 AM28.0 °F24.1 °F85 %30.37 in10.0 miCalmClear
6:55 AM27.0 °F23.0 °F85 %30.38 in10.0 miCalmScattered Clouds
7:55 AM28.0 °F24.1 °F85 %30.39 in10.0 miCalmScattered Clouds
8:55 AM33.1 °F27.0 °F78 %30.39 in10.0 miCalmScattered Clouds
9:55 AM39.0 °F28.0 °F65 %30.37 in10.0 miCalmScattered Clouds
10:55 AM43.0 °F28.0 °F56 %30.35 in10.0 miCalmScattered Clouds
11:55 AM48.0 °F28.9 °F48 %30.31 in10.0 miCalmScattered Clouds
12:55 PM52.0 °F28.9 °F41 %30.27 in10.0 miCalmPartly Cloudy
1:55 PM55.9 °F28.9 °F36 %30.21 in10.0 miCalmPartly Cloudy
2:55 PM55.9 °F28.0 °F34 %30.20 in10.0 miNorth (10°)3.5 mphPartly Cloudy
3:55 PM57.9 °F28.9 °F33 %30.19 in10.0 miNNE (20°)4.6 mphPartly Cloudy
4:55 PM55.0 °F30.9 °F40 %30.22 in10.0 miNNE (20°)6.9 mphPartly Cloudy
5:55 PM48.9 °F32.0 °F52 %30.24 in10.0 miNNE (30°)5.8 mphPartly Cloudy
6:55 PM44.1 °F30.9 °F60 %30.27 in10.0 miNE (40°)3.5 mphClear
7:55 PM42.1 °F30.9 °F65 %30.29 in10.0 miCalmClear
8:55 PM39.0 °F30.0 °F70 %30.29 in10.0 miCalmClear
9:55 PM36.0 °F28.0 °F73 %30.29 in10.0 miCalmClear
10:55 PM37.0 °F26.1 °F65 %30.28 in10.0 miCalmClear
11:55 PM33.1 °F26.1 °F75 %30.28 in10.0 miCalmClear
Hourly data recorded from KRNO, located miles away from Wadsworth, Nevada







STORIES FROM OUR PARTNERS